FW0960 Weather Reports


time (UTC)temp
C
wind
direction
speed
KPH
gust
KPH
rain 1hr
cm
rain 24hr
cm
rain mn
cm
humidity
%
barometer
mb
20260507144501 13 194 1.6 8.0 0.00 0.00 0.00 79 1012.8
20260507144003 13 181 1.6 8.0 0.00 0.00 0.00 80 1013.0
20260507143007 13 192 0.0 3.2 0.00 0.00 0.00 80 1012.8
20260507142504 13 194 1.6 4.8 0.00 0.00 0.00 82 1012.9
20260507142003 13 198 1.6 4.8 0.00 0.00 0.00 81 1012.9
20260507141531 13 201 1.6 4.8 0.00 0.00 0.00 82 1013.0
20260507140504 13 213 1.6 9.7 0.00 0.00 0.00 81 1012.8
20260507140008 13 196 1.6 9.7 0.00 0.00 0.00 80 1013.0
20260507135503 13 248 1.6 3.2 0.00 0.00 0.00 80 1012.9
20260507135009 13 209 0.0 3.2 0.00 0.00 0.00 81 1012.9
20260507133957 13 204 1.6 4.8 0.00 0.00 0.00 80 1012.9
20260507133453 13 161 0.0 4.8 0.00 0.00 0.00 80 1013.0
20260507132942 12 216 1.6 4.8 0.00 0.00 0.00 81 1013.0
20260507131504 12 196 1.6 4.8 0.00 0.00 0.00 80 1012.8
20260507130938 12 198 1.6 4.8 0.00 0.00 0.00 80 1012.5
20260507130437 12 201 0.0 4.8 0.00 0.00 0.00 81 1012.7
20260507125939 12 188 0.0 4.8 0.00 0.00 0.00 81 1012.7
20260507125437 12 192 0.0 4.8 0.00 0.00 0.00 81 1012.7
20260507124932 12 213 1.6 6.4 0.00 0.00 0.00 81 1012.7
20260507124434 12 200 1.6 6.4 0.00 0.00 0.00 81 1012.7
20260507123931 12 200 1.6 3.2 0.00 0.00 0.00 82 1012.7
20260507122934 12 194 1.6 4.8 0.00 0.00 0.00 82 1012.5
20260507122432 12 197 1.6 4.8 0.00 0.00 0.00 82 1012.6
20260507121940 12 195 0.0 3.2 0.00 0.00 0.00 83 1012.6
20260507120930 12 193 1.6 3.2 0.00 0.00 0.00 82 1012.7
20260507115931 12 198 1.6 4.8 0.00 0.00 0.00 82 1013.0
20260507115431 12 205 1.6 4.8 0.00 0.00 0.00 82 1013.0
20260507114929 12 199 1.6 9.7 0.00 0.00 0.00 82 1012.9
20260507114438 12 200 1.6 9.7 0.00 0.00 0.00 82 1012.7
20260507113931 12 206 3.2 9.7 0.00 0.00 0.00 82 1012.8
20260507113432 12 205 3.2 9.7 0.00 0.00 0.00 81 1012.6
20260507112935 12 199 3.2 8.0 0.00 0.00 0.00 82 1012.3
20260507112433 12 212 3.2 8.0 0.00 0.00 0.00 82 1012.4
20260507111936 12 203 3.2 8.0 0.00 0.00 0.00 82 1012.4
20260507111437 12 191 1.6 8.0 0.00 0.00 0.00 82 1012.2
20260507110930 12 184 1.6 6.4 0.00 0.00 0.00 83 1012.1
20260507110431 12 185 1.6 3.2 0.00 0.00 0.00 83 1012.0
20260507105935 12 205 0.0 6.4 0.00 0.00 0.00 84 1012.1
20260507105436 12 181 1.6 6.4 0.00 0.00 0.00 85 1012.1
20260507104933 12 198 1.6 8.0 0.00 0.00 0.00 86 1012.1
20260507104431 12 188 1.6 8.0 0.00 0.00 0.00 86 1012.2
20260507103928 12 200 1.6 6.4 0.00 0.00 0.00 86 1012.1
20260507102417 12 200 1.6 3.2 0.00 0.00 0.00 88 1012.1
20260507101922 12 192 1.6 6.4 0.00 0.00 0.00 88 1012.1
20260507101414 12 199 1.6 6.4 0.00 0.00 0.00 88 1011.9
20260507100917 12 196 1.6 6.4 0.00 0.00 0.00 88 1012.0
20260507100412 12 192 1.6 6.4 0.00 0.00 0.00 88 1012.1
20260507095914 12 177 1.6 6.4 0.00 0.00 0.00 88 1012.2
20260507095420 12 188 1.6 9.7 0.00 0.00 0.00 88 1012.1
20260507094412 12 192 3.2 11.3 0.00 0.00 0.00 88 1011.9
20260507093909 12 195 3.2 11.3 0.00 0.00 0.00 88 1011.9
20260507093410 12 202 3.2 11.3 0.00 0.00 0.00 88 1011.3
20260507092908 12 207 3.2 11.3 0.00 0.00 0.00 88 1011.2
20260507092412 12 204 3.2 8.0 0.00 0.00 0.00 88 1010.7
20260507091908 12 205 1.6 8.0 0.00 0.00 0.00 89 1011.0
20260507091409 13 209 1.6 9.7 0.00 0.00 0.00 91 1011.0
20260507090917 13 212 1.6 9.7 0.00 0.00 0.00 91 1010.9
20260507090410 13 198 1.6 8.0 0.00 0.00 0.00 91 1010.9
20260507085402 13 218 3.2 8.0 0.00 0.00 0.00 90 1010.7
20260507084904 13 196 3.2 9.7 0.00 0.00 0.00 90 1010.9
20260507084405 13 207 1.6 9.7 0.00 0.00 0.00 91 1011.0
20260507083904 13 204 1.6 8.0 0.00 0.00 0.00 91 1011.0
20260507083404 13 198 1.6 11.3 0.00 0.00 0.00 91 1010.7
20260507082904 14 200 3.2 11.3 0.00 0.00 0.00 92 1010.8
20260507082412 14 207 3.2 11.3 0.00 0.00 0.00 92 1010.9
20260507080907 15 171 3.2 8.0 0.00 0.00 0.00 93 1010.3
20260507080401 15 220 3.2 8.0 0.00 0.00 0.00 94 1010.3
20260507075903 15 205 1.6 6.4 0.00 0.00 0.00 94 1010.2
20260507075402 15 197 1.6 4.8 0.00 0.00 0.00 94 1009.9
20260507074902 15 191 1.6 4.8 0.00 0.00 0.00 94 1009.7
20260507073901 15 170 1.6 4.8 0.00 0.00 0.00 93 1009.6
20260507073406 15 210 1.6 4.8 0.00 0.00 0.00 93 1009.7
20260507072904 15 210 1.6 4.8 0.00 0.00 0.00 92 1009.6
20260507072402 15 190 1.6 4.8 0.00 0.00 0.00 92 1009.6
20260507071850 15 198 1.6 4.8 0.00 0.00 0.00 91 1009.5
20260507070838 16 212 1.6 8.0 0.00 0.00 0.00 89 1009.6
20260507070341 17 213 1.6 8.0 0.00 0.00 0.00 89 1009.9
20260507065839 18 138 0.0 0.0 0.00 0.00 0.00 93 1009.8
20260507065338 18 138 0.0 1.6 0.00 0.00 0.00 92 1009.8
20260507064840 18 138 0.0 1.6 0.00 0.00 0.00 92 1009.9
20260507064341 18 138 0.0 3.2 0.00 0.00 0.00 91 1009.7
20260507063838 18 141 0.0 3.2 0.00 0.00 0.00 91 1009.6
20260507063336 18 144 0.0 1.6 0.00 0.00 0.00 90 1009.6
20260507062339 18 144 0.0 3.2 0.00 0.00 0.00 89 1009.5
20260507061838 18 144 0.0 3.2 0.00 0.00 0.00 89 1009.3
20260507061340 18 135 0.0 1.6 0.00 0.00 0.00 89 1009.3
20260507060833 18 135 0.0 0.0 0.00 0.00 0.00 89 1009.3
20260507055832 18 135 0.0 1.6 0.00 0.00 0.00 88 1009.5
20260507055334 18 135 0.0 0.0 0.00 0.00 0.00 88 1009.3
20260507054828 18 135 0.0 0.0 0.00 0.00 0.00 88 1009.4
20260507053827 18 135 0.0 1.6 0.00 0.00 0.00 88 1009.7
20260507053325 18 135 0.0 0.0 0.00 0.00 0.00 88 1009.9
20260507052824 18 135 0.0 0.0 0.00 0.00 0.00 88 1009.9
20260507052320 18 135 0.0 0.0 0.00 0.00 0.00 88 1009.9
20260507051827 18 135 0.0 0.0 0.00 0.00 0.00 88 1009.9
20260507051325 18 135 0.0 0.0 0.00 0.00 0.00 88 1010.2
20260507050819 18 135 0.0 0.0 0.00 0.00 0.00 88 1010.1
20260507050323 18 135 0.0 0.0 0.00 0.00 0.00 88 1010.0
20260507045316 18 135 0.0 0.0 0.00 0.00 0.00 88 1010.1
20260507042819 18 135 0.0 1.6 0.00 0.00 0.00 89 1010.3
20260507042315 18 135 0.0 1.6 0.00 0.00 0.00 89 1010.3
20260507041817 18 135 0.0 0.0 0.00 0.00 0.00 89 1010.4
20260507041312 18 135 0.0 1.6 0.00 0.00 0.00 89 1010.2
20260507040817 18 135 0.0 1.6 0.00 0.00 0.00 89 1010.2
20260507040314 18 135 0.0 0.0 0.00 0.00 0.00 88 1010.0
20260507035810 18 135 0.0 0.0 0.00 0.00 0.00 88 1010.1
20260507034311 18 135 0.0 0.0 0.00 0.00 0.00 87 1009.5
20260507033802 18 135 0.0 0.0 0.00 0.00 0.00 87 1009.7
20260507032803 18 135 0.0 0.0 0.00 0.00 0.00 87 1010.1
20260507032306 18 135 0.0 0.0 0.00 0.00 0.00 86 1010.0
20260507031804 18 135 0.0 0.0 0.00 0.00 0.00 86 1009.9
20260507031303 18 135 0.0 0.0 0.00 0.00 0.00 86 1010.1
20260507030803 18 135 0.0 0.0 0.00 0.00 0.00 86 1010.1
20260507030303 19 135 0.0 0.0 0.00 0.00 0.00 85 1009.9
20260507025307 19 135 0.0 0.0 0.00 0.00 0.00 85 1010.1
20260507024814 19 135 0.0 0.0 0.00 0.00 0.00 85 1010.2
20260507024306 19 135 0.0 0.0 0.00 0.00 0.00 84 1010.4
20260507023805 19 135 0.0 0.0 0.00 0.00 0.00 84 1010.3
20260507023305 19 135 0.0 1.6 0.00 0.00 0.00 84 1010.4
20260507022803 19 135 0.0 1.6 0.00 0.00 0.00 84 1010.3
20260507022306 20 135 0.0 0.0 0.00 0.00 0.00 84 1010.3
20260507021802 20 135 0.0 0.0 0.00 0.00 0.00 83 1010.3
20260507021304 20 135 0.0 1.6 0.00 0.00 0.00 83 1010.4
20260507020806 20 135 0.0 1.6 0.00 0.00 0.00 83 1010.5
20260507020302 20 135 0.0 1.6 0.00 0.00 0.00 83 1010.5
20260507015808 20 135 0.0 1.6 0.00 0.00 0.00 83 1010.7
20260507015306 20 132 0.0 1.6 0.00 0.00 0.00 83 1010.9
20260507014804 20 132 0.0 0.0 0.00 0.00 0.00 83 1010.8
20260507014303 20 132 0.0 1.6 0.00 0.00 0.00 83 1010.6
20260507013808 20 132 0.0 1.6 0.00 0.00 0.00 82 1010.5
20260507012307 20 132 0.0 1.6 0.00 0.00 0.00 82 1010.5
20260507011804 20 132 0.0 1.6 0.00 0.00 0.00 81 1010.5
20260507011301 20 132 0.0 0.0 0.00 0.00 0.00 81 1010.6
20260507010801 20 132 0.0 0.0 0.00 0.00 0.00 81 1010.5
20260507010301 20 132 0.0 1.6 0.00 0.00 0.00 81 1010.6
20260507005804 20 132 0.0 1.6 0.00 0.00 0.00 80 1010.5
20260507005305 20 132 0.0 0.0 0.00 0.00 0.00 80 1010.4
20260507004804 20 132 0.0 1.6 0.00 0.00 0.00 80 1010.3
20260507003759 21 132 0.0 0.0 0.00 0.00 0.00 80 1010.2
20260507002241 21 132 0.0 1.6 0.00 0.00 0.00 79 1010.0
20260507001740 21 132 0.0 1.6 0.00 0.00 0.00 79 1010.0
20260507001240 21 132 0.0 1.6 0.00 0.00 0.00 79 1010.0
20260507000738 21 132 0.0 1.6 0.00 0.00 0.00 78 1010.0
20260507000239 21 132 0.0 1.6 0.00 0.00 0.00 78 1009.8
20260506235739 21 132 0.0 1.6 0.00 0.00 0.00 78 1009.9
20260506235233 21 132 0.0 1.6 0.00 0.00 0.00 78 1009.9
20260506234734 21 132 0.0 1.6 0.00 0.00 0.00 78 1009.8
20260506234234 21 132 0.0 1.6 0.00 0.00 0.00 77 1009.8
20260506233739 21 132 0.0 1.6 0.00 0.00 0.00 77 1009.8
20260506233236 21 132 0.0 1.6 0.00 0.00 0.00 77 1009.7
20260506232737 21 132 0.0 3.2 0.00 0.00 0.00 77 1009.6
20260506232237 21 132 0.0 3.2 0.00 0.00 0.00 76 1009.7
20260506231737 21 125 0.0 3.2 0.00 0.00 0.00 76 1009.8
20260506231243 22 125 0.0 4.8 0.00 0.00 0.00 76 1009.7
20260506230736 22 126 0.0 4.8 0.00 0.00 0.00 77 1009.8
20260506224734 22 113 0.0 3.2 0.00 0.00 0.00 76 1009.8
20260506224231 22 113 0.0 3.2 0.00 0.00 0.00 76 1009.7
20260506223233 22 107 0.0 4.8 0.00 0.00 0.00 76 1009.7
20260506222743 22 112 0.0 3.2 0.00 0.00 0.00 76 1009.7
20260506222232 22 104 1.6 4.8 0.00 0.00 0.00 76 1009.8
20260506221232 22 133 0.0 6.4 0.00 0.00 0.00 76 1009.8
20260506220731 22 67 0.0 4.8 0.00 0.00 0.00 77 1009.7
20260506220300 22 51 1.6 9.7 0.00 0.00 0.00 76 1009.7
20260506214731 22 349 1.6 8.0 0.00 0.00 0.00 76 1009.5
20260506214230 22 169 0.0 8.0 0.00 0.00 0.00 77 1009.6
20260506213732 22 175 1.6 6.4 0.00 0.00 0.00 77 1009.6
20260506213233 22 148 1.6 8.0 0.00 0.00 0.00 77 1009.6
20260506212730 21 120 1.6 8.0 0.00 0.00 0.00 77 1009.5
20260506212237 21 9 0.0 6.4 0.00 0.00 0.00 77 1009.4
20260506211731 21 111 0.0 6.4 0.00 0.00 0.00 77 1009.6
20260506211230 21 146 1.6 4.8 0.00 0.00 0.00 77 1009.4
20260506210732 21 119 1.6 4.8 0.00 0.00 0.00 77 1009.2
20260506205231 21 76 1.6 4.8 0.00 0.00 0.00 76 1009.4
20260506204731 21 126 1.6 8.0 0.00 0.00 0.00 76 1009.1
20260506204233 21 154 0.0 8.0 0.00 0.00 0.00 76 1009.4
20260506203729 21 119 1.6 6.4 0.00 0.00 0.00 76 1009.4
20260506203231 21 150 1.6 4.8 0.00 0.00 0.00 76 1009.3
20260506202733 22 147 1.6 4.8 0.00 0.00 0.00 75 1009.3
20260506202230 22 185 1.6 3.2 0.00 0.00 0.00 76 1009.5
20260506201731 22 126 1.6 9.7 0.00 0.00 0.00 76 1009.7
20260506201233 22 183 1.6 9.7 0.00 0.00 0.00 75 1009.8
20260506200731 22 73 1.6 6.4 0.00 0.00 0.00 76 1009.9
20260506200230 22 115 1.6 6.4 0.00 0.00 0.00 75 1010.1
20260506195730 22 105 1.6 6.4 0.00 0.00 0.00 75 1010.2
20260506195230 22 331 1.6 4.8 0.00 0.00 0.00 75 1009.7
20260506192734 21 97 1.6 6.4 0.00 0.00 0.00 75 1010.0
20260506191732 21 138 1.6 4.8 0.00 0.00 0.00 75 1010.4
20260506190732 21 96 0.0 4.8 0.00 0.00 0.00 76 1010.6
20260506190230 21 98 0.0 4.8 0.00 0.00 0.00 76 1010.4
20260506185234 21 9 0.0 8.0 0.00 0.00 0.00 78 1010.4
20260506184732 21 181 1.6 3.2 0.00 0.00 0.00 78 1010.5
20260506184231 21 171 1.6 3.2 0.00 0.00 0.00 78 1010.6
20260506183731 21 219 1.6 3.2 0.00 0.00 0.00 79 1010.8
20260506183234 21 321 0.0 6.4 0.00 0.00 0.00 80 1010.8
20260506182729 21 182 1.6 6.4 0.00 0.00 0.00 80 1010.9
20260506182232 20 122 1.6 4.8 0.00 0.00 0.00 80 1011.1
20260506181730 20 122 1.6 4.8 0.00 0.00 0.00 80 1011.0
20260506181233 20 216 1.6 4.8 0.00 0.00 0.00 80 1011.3
20260506180732 20 199 1.6 9.7 0.00 0.00 0.00 79 1011.4
20260506180232 20 5 1.6 9.7 0.00 0.00 0.00 80 1011.3
20260506175734 20 310 1.6 6.4 0.00 0.00 0.00 80 1011.3
20260506175231 20 340 1.6 4.8 0.00 0.00 0.00 79 1010.9
20260506174731 20 145 1.6 9.7 0.00 0.00 0.00 79 1011.2
20260506173729 21 310 1.6 4.8 0.00 0.00 0.00 80 1011.2
20260506173232 21 338 1.6 3.2 0.00 0.00 0.00 78 1011.2
20260506172735 21 164 0.0 3.2 0.00 0.00 0.00 78 1011.4
20260506172232 21 118 0.0 3.2 0.00 0.00 0.00 80 1011.5
20260506171805 21 136 0.0 3.2 0.00 0.00 0.00 79 1011.6
20260506170735 20 173 0.0 3.2 0.00 0.00 0.00 78 1011.6
20260506170233 20 84 1.6 3.2 0.00 0.00 0.00 77 1011.8
20260506165732 20 115 1.6 9.7 0.00 0.00 0.00 76 1011.9
20260506164222 21 164 1.6 8.0 0.00 0.00 0.00 74 1012.3
20260506163721 21 310 1.6 8.0 0.00 0.00 0.00 72 1012.6
20260506163218 22 169 1.6 6.4 0.00 0.00 0.00 72 1012.5
20260506162719 22 348 1.6 11.3 0.00 0.00 0.00 68 1012.5
20260506162216 22 348 1.6 11.3 0.00 0.00 0.00 68 1012.4
20260506161713 23 143 1.6 6.4 0.00 0.00 0.00 69 1012.4
20260506160213 23 134 1.6 6.4 0.00 0.00 0.00 67 1012.3
20260506155717 23 169 1.6 6.4 0.00 0.00 0.00 68 1012.6
20260506155208 22 267 0.0 4.8 0.00 0.00 0.00 69 1012.6
20260506154705 22 244 1.6 6.4 0.00 0.00 0.00 69 1012.6
20260506154203 22 113 1.6 6.4 0.00 0.00 0.00 69 1012.7
20260506153706 22 140 1.6 8.0 0.00 0.00 0.00 66 1012.6
20260506153205 22 124 1.6 8.0 0.00 0.00 0.00 67 1012.7
20260506152706 22 120 1.6 6.4 0.00 0.00 0.00 69 1012.7
20260506151146 22 143 0.0 4.8 0.00 0.00 0.00 69 1012.7
20260506150642 22 152 0.0 3.2 0.00 0.00 0.00 68 1012.6
20260506150148 22 119 0.0 6.4 0.00 0.00 0.00 69 1012.6
20260506145145 22 157 1.6 6.4 0.00 0.00 0.00 68 1012.7